SILO ALERT LOG


Silo ID Alert Type Alert Message Silo Type Points Depth (mm) Strength Temperature (°C) Humidity (%) Height (mm) Volume (㎥) Weight (t) Flag Time
WJWJR05 Humidity 습도센서 측정값이 80% 초과 79 5781 2172 20.1 81 1948 220.332 139.294 0 2026-06-02 08:25:56.000
WJWJR01 Humidity 습도센서 측정값이 80% 초과 48 6857 1814 20 85 782 88.514 55.959 0 2026-06-02 08:25:53.000
WJWJR05 Humidity 습도센서 측정값이 80% 초과 78 5764 2194 19.8 81.2 1965 222.239 140.5 0 2026-06-02 07:25:57.000
WJWJR01 Humidity 습도센서 측정값이 80% 초과 50 6878 1843 19.1 86.6 761 86.165 54.473 0 2026-06-02 07:25:49.000
WJWJR05 Humidity 습도센서 측정값이 80% 초과 79 5757 2191 19.8 81 1972 223.126 141.061 0 2026-06-02 06:26:05.000
WJWJR01 Humidity 습도센서 측정값이 80% 초과 49 6856 1838 19.1 86.8 783 88.59 56.007 0 2026-06-02 06:25:52.000
WJWJR05 Humidity 습도센서 측정값이 80% 초과 79 5713 2227 20 80.7 2016 228.087 144.197 0 2026-06-02 05:25:59.000
WJWJR01 Humidity 습도센서 측정값이 80% 초과 49 6801 1879 19.3 86.6 838 94.778 59.918 0 2026-06-02 05:25:56.000
WJWJR05 Humidity 습도센서 측정값이 80% 초과 79 5763 2211 20.2 80.5 1966 222.456 140.637 0 2026-06-02 04:25:53.000
WJWJR01 Humidity 습도센서 측정값이 80% 초과 49 6904 1849 19.6 86.2 735 83.175 52.583 0 2026-06-02 04:25:48.000
WJWJR01 Humidity 습도센서 측정값이 80% 초과 50 6759 1834 20 85.8 880 99.563 62.944 0 2026-06-02 03:25:52.000
WJWJR01 Humidity 습도센서 측정값이 80% 초과 49 6793 1833 20.4 85.3 846 95.784 60.555 0 2026-06-02 02:25:52.000
WJWJR01 Humidity 습도센서 측정값이 80% 초과 49 6804 1849 20.9 84.6 835 94.477 59.728 0 2026-06-02 01:25:54.000
WJWJR01 Humidity 습도센서 측정값이 80% 초과 49 6806 1837 21.6 83.6 833 94.297 59.614 0 2026-06-02 00:25:50.000
WJWJR01 Humidity 습도센서 측정값이 80% 초과 49 6829 1857 22.2 82.2 810 91.625 57.926 0 2026-06-01 23:25:50.000
WJWJR01 Humidity 습도센서 측정값이 80% 초과 49 6764 1809 23.1 80.6 875 99.022 62.602 0 2026-06-01 22:25:49.000
WJWJR01 Humidity 습도센서 측정값이 80% 초과 49 6855 1830 21.5 82.9 784 88.688 56.069 0 2026-06-01 10:25:51.000
WJWJR05 Humidity 습도센서 측정값이 80% 초과 79 5743 2320 21.2 83.1 1986 224.721 142.068 0 2026-06-01 09:25:55.000
WJWJR01 Humidity 습도센서 측정값이 80% 초과 50 6702 1855 19.9 85.7 937 105.981 67.001 0 2026-06-01 09:25:52.000
WJWJR05 Humidity 습도센서 측정값이 80% 초과 79 5668 2243 20.8 83.5 2061 233.155 147.401 0 2026-06-01 08:25:55.000

[첫 페이지] [53] [54] [55] [56] 57 [58] [59] [60] [61] [마지막 페이지]